Flag for Netherlands Weather past 2 weeks in Eindhoven, Netherlands

Now
48 °F

Scattered clouds.


Feels Like: 43 °F
Forecast: 32 / 51 °F
Wind: 14 mph from West

Location: Eindhoven Airport

Current Time: Mar 27, 2015 at 1:20:27 PM

Latest Report: Mar 27, 2015 at 12:55 PM


Visibility: N/A

Pressure: 30.07 "Hg

Humidity: 62%

Dew point: 36 °F

Location of EindhovenLocation

Historic Weather in Eindhoven — Graph

°F

Eindhoven temperature yesterday

Maximum temperature yesterday: 45 °F (at 11:55 AM)
Minimum temperature yesterday: 34 °F (at 6:25 AM)
Average temperature yesterday: 40 °F

Past Weeks' High & Low Weather Summary

 TemperatureHumidityPressure
High64 °F (Mar 17, 2:55 PM)100% (Mar 16, 4:25 AM)30.45 "Hg (Mar 16, 4:25 AM)
Low27 °F (Mar 23, 12:55 AM)37% (Mar 17, 3:25 PM)29.68 "Hg (Mar 25, 3:55 AM)
Average42 °F82%30.13 "Hg
* Reported Mar 12 11:25 AM — Mar 27 11:55 AM, Eindhoven, Weather by CustomWeather, © 2015

Note: Actual official high and low records may vary slightly from our data, if they occured in-between our weather recording intervals... More about our weather records

Advertising

Eindhoven weather history for previous 24 hours

 ConditionsComfort  
Time TempWeatherWind HumidityBarometerVisibility
11:55 AM
Fri, Mar 27
48 °FBroken clouds.14 mph66%30.07 "HgN/A
11:25 AM48 °FBroken clouds.15 mph66%30.04 "HgN/A
10:55 AM46 °FMore clouds than sun.15 mph71%30.04 "HgN/A
10:25 AM46 °FMore clouds than sun.17 mph71%30.04 "HgN/A
9:55 AM46 °FCloudy.13 mph76%30.01 "HgN/A
9:25 AM45 °FBroken clouds.16 mph81%30.01 "HgN/A
9:02 AM45 °FPartly sunny.14 mph76%29.98 "HgN/A
8:55 AM45 °FPassing clouds.15 mph81%29.98 "HgN/A
8:25 AM43 °FQuite cool.14 mph81%29.98 "HgN/A
7:55 AM43 °FOvercast.13 mph81%29.98 "HgN/A
7:25 AM43 °FMostly cloudy.13 mph81%29.95 "HgN/A
6:55 AM41 °FPartly sunny.10 mph87%29.95 "HgN/A
6:25 AM41 °FMostly cloudy.10 mph87%29.92 "HgN/A
5:55 AM41 °FPassing clouds.10 mph87%29.89 "HgN/A
5:25 AM43 °FMostly cloudy.12 mph81%29.89 "HgN/A
4:55 AM41 °FOvercast.12 mph87%29.89 "HgN/A
3:55 AM41 °FMostly cloudy.10 mph81%29.86 "HgN/A
3:25 AM41 °FPassing clouds.10 mph81%29.86 "HgN/A
2:55 AM41 °FPassing clouds.9 mph81%29.86 "HgN/A
2:25 AM43 °FPassing clouds.10 mph81%29.83 "HgN/A
1:55 AM43 °FOvercast.10 mph81%29.83 "HgN/A
1:25 AM43 °FPassing clouds.9 mph81%29.83 "HgN/A
12:55 AM43 °FPassing clouds.10 mph81%29.80 "HgN/A
12:25 AM43 °FPartly cloudy.10 mph87%29.80 "HgN/A
11:55 PM
Thu, Mar 26
43 °FPartly cloudy.9 mph87%29.77 "HgN/A
11:25 PM43 °FPassing clouds.9 mph93%29.77 "HgN/A
11:04 PM43 °FFog.9 mph93%29.77 "Hg5 mi
10:55 PM43 °FFog.9 mph93%29.77 "Hg5 mi
10:25 PM43 °FFog.10 mph93%29.74 "Hg4 mi
9:55 PM43 °FFog.12 mph100%29.74 "Hg4 mi
9:25 PM45 °FFog.10 mph93%29.74 "Hg3 mi
8:55 PM43 °FFog.10 mph100%29.71 "Hg4 mi
8:25 PM43 °FPartly cloudy.12 mph100%29.71 "Hg4 mi
7:55 PM43 °FPassing clouds.12 mph93%29.68 "HgN/A
7:25 PM43 °FPartly cloudy.12 mph93%29.68 "HgN/A
6:55 PM41 °FDrizzle. Mostly cloudy.14 mph100%29.68 "Hg5 mi
6:25 PM41 °FDrizzle. Broken clouds.13 mph93%29.68 "HgN/A
5:55 PM41 °FSprinkles. Partly sunny.10 mph93%29.68 "Hg5 mi
5:25 PM41 °FSprinkles. Broken clouds.12 mph93%29.68 "Hg3 mi
4:55 PM41 °FLight rain. Mostly cloudy.13 mph93%29.68 "Hg4 mi
4:25 PM41 °FDrizzle. Cloudy.14 mph87%29.68 "HgN/A
3:55 PM41 °FDrizzle. Broken clouds.13 mph87%29.68 "HgN/A
3:25 PM41 °FDrizzle. Broken clouds.17 mph87%29.68 "HgN/A
2:55 PM43 °FDrizzle. Broken clouds.18 mph76%29.68 "HgN/A
2:25 PM43 °FDrizzle. Partly sunny.23 mph71%29.68 "HgN/A
1:55 PM45 °FBroken clouds.15 mph66%29.68 "HgN/A
1:25 PM45 °FDrizzle. Partly sunny.14 mph66%29.71 "HgN/A
Weather by CustomWeather, © 2015

See weather overviewHow to use our weather pages